Home   Weather   Churu   Past weeks

Flag for India Past Weather in Churu, Rajasthan, India — Yesterday and Last 2 Weeks

Now
84 °F

Haze.


Feels Like: 86 °F
Forecast: 75 / 97 °F
Wind: No wind

Location: Jaipur / Sanganer

Current Time: Sep 29, 2016 at 2:02:24 AM

Latest Report: Sep 29, 2016 at 1:00 AM


Visibility: 3 mi

Pressure: 29.74 "Hg

Humidity: 51%

Dew Point: 64 °F

Location of ChuruLocation

Past Weather in Churu — Graph

°F

Churu Temperature Yesterday

Maximum temperature yesterday: 97 °F (at 1:30 PM)
Minimum temperature yesterday: 81 °F (at 5:30 AM)
Average temperature yesterday: 90 °F

High & Low Weather Summary for the Past Weeks

 TemperatureHumidityPressure
High100 °F (Sep 21, 3:30 PM)94% (Sep 24, 1:30 AM)29.86 "Hg (Sep 24, 1:30 AM)
Low72 °F (Sep 24, 1:00 AM)27% (Sep 17, 4:30 PM)29.56 "Hg (Sep 22, 9:00 AM)
Average87 °F56%29.75 "Hg
* Reported Sep 13 11:30 PM — Sep 29 12:00 AM, Churu, Weather by CustomWeather, © 2016

Note: Actual official high and low records may vary slightly from our data, if they occured in-between our weather recording intervals... More about our weather records

Advertising

Churu Weather History for the Previous 24 Hours

Scroll right to see more
 ConditionsComfort  
Time TempWeatherWind HumidityBarometerVisibility
12:00 AM
Thu, Sep 29
88 °FHaze.3 mph40%29.74 "Hg3 mi
11:30 PM
Wed, Sep 28
88 °FHaze.2 mph40%29.74 "Hg3 mi
11:00 PM88 °FHaze.2 mph43%29.74 "Hg3 mi
10:30 PM90 °FHaze.No wind38%29.74 "Hg3 mi
9:00 PM86 °FHaze.2 mph52%29.74 "Hg3 mi
8:30 PM90 °FHaze.No wind41%29.74 "Hg3 mi
7:00 PM93 °FHaze.No wind30%29.71 "Hg3 mi
6:30 PM93 °FHaze.1 mph30%29.71 "Hg3 mi
6:00 PM95 °FPassing clouds.3 mph28%29.71 "Hg4 mi
5:30 PM95 °FPassing clouds.5 mph30%29.68 "Hg4 mi
5:00 PM97 °FPassing clouds.6 mph27%29.71 "Hg4 mi
3:30 PM97 °FScattered clouds.7 mph30%29.71 "Hg4 mi
3:00 PM97 °FScattered clouds.6 mph30%29.71 "Hg4 mi
2:30 PM97 °FScattered clouds.5 mph28%29.71 "Hg4 mi
2:00 PM97 °FClear.6 mph30%29.74 "Hg4 mi
1:30 PM97 °FClear.5 mph32%29.74 "Hg4 mi
1:00 PM95 °FClear.7 mph34%29.77 "Hg4 mi
12:30 PM95 °FClear.8 mph34%29.77 "Hg4 mi
12:00 PM93 °FClear.9 mph36%29.80 "Hg4 mi
11:30 AM91 °FClear.9 mph41%29.80 "Hg4 mi
11:00 AM91 °FClear.9 mph41%29.80 "Hg4 mi
10:00 AM88 °FClear.10 mph46%29.83 "Hg4 mi
9:30 AM88 °FClear.7 mph49%29.83 "Hg4 mi
9:00 AM86 °FClear.8 mph55%29.83 "Hg4 mi
8:30 AM84 °FClear.6 mph58%29.80 "Hg4 mi
8:00 AM82 °FHaze.7 mph62%29.80 "Hg3 mi
7:00 AM81 °FHaze.5 mph66%29.77 "Hg3 mi
6:00 AM81 °FHaze.No wind74%29.77 "Hg3 mi
5:30 AM81 °FHaze.No wind70%29.77 "Hg3 mi
2:30 AM82 °FHaze.No wind70%29.77 "Hg3 mi
2:00 AM82 °FPassing clouds.3 mph66%29.77 "Hg4 mi
Weather by CustomWeather, © 2016

See weather overviewHow to use our weather pages